DW7267 Weather Reports


Display with metric or nautical units.
time (UTC)temp
F
wind
direction
speed
MPH
gust
MPH
rain 1hr
in
rain 24hr
in
rain mn
in
humidity
%
barometer
mb
20260903233617 76 225 2.0 9.0 0.00 0.00 0.00 46 1019.3
20260903233116 76 250 1.0 6.0 0.00 0.00 0.00 48 1019.3
20260903232616 76 279 2.0 6.0 0.00 0.00 0.00 50 1019.4
20260903232117 76 243 2.0 6.0 0.00 0.00 0.00 49 1019.4
20260903231616 76 246 1.0 11.0 0.00 0.00 0.00 49 1019.4
20260903231111 76 161 0.0 11.0 0.00 0.00 0.00 51 1019.4
20260903230843 76 221 2.0 12.0 0.00 0.00 0.00 50 1019.7
20260903230343 76 188 3.0 12.0 0.00 0.00 0.00 49 1019.6
20260903225611 77 250 2.0 8.0 0.00 0.00 0.00 49 1019.7
20260903225109 78 261 2.0 8.0 0.00 0.00 0.00 48 1019.8
20260903224608 78 167 2.0 8.0 0.00 0.00 0.00 48 1019.8
20260903224101 77 280 2.0 8.0 0.00 0.00 0.00 48 1019.8
20260903223558 76 244 2.0 8.0 0.00 0.00 0.00 50 1019.8
20260903223059 76 173 2.0 6.0 0.00 0.00 0.00 52 1020.0
20260903222600 76 195 2.0 6.0 0.00 0.00 0.00 52 1019.9
20260903222059 76 243 2.0 10.0 0.00 0.00 0.00 50 1020.0
20260903221558 77 245 1.0 10.0 0.00 0.00 0.00 49 1020.0
20260903221051 78 238 2.0 11.0 0.00 0.00 0.00 47 1020.2
20260903220552 78 233 2.0 11.0 0.00 0.00 0.00 46 1020.0
20260903220053 78 279 2.0 11.0 0.00 0.00 0.00 48 1020.2
20260903215552 78 154 3.0 11.0 0.00 0.00 0.00 45 1020.2
20260903215052 78 129 3.0 11.0 0.00 0.00 0.00 44 1020.2
20260903214825 78 265 4.0 11.0 0.00 0.00 0.00 46 1020.3
20260903214046 78 275 4.0 11.0 0.00 0.00 0.00 45 1020.4
20260903213546 78 191 3.0 8.0 0.00 0.00 0.00 47 1020.4
20260903213318 78 235 3.0 8.0 0.00 0.00 0.00 46 1020.5
20260903212817 78 251 3.0 9.0 0.00 0.00 0.00 46 1020.5
20260903212047 78 145 2.0 9.0 0.00 0.00 0.00 45 1020.5
20260903211546 78 155 1.0 6.0 0.00 0.00 0.00 49 1020.5
20260903211313 77 300 2.0 11.0 0.00 0.00 0.00 48 1020.5
20260903210542 78 275 3.0 11.0 0.00 0.00 0.00 48 1020.7
20260903210043 78 250 3.0 12.0 0.00 0.00 0.00 47 1020.7
20260903205540 77 281 3.0 12.0 0.00 0.00 0.00 49 1020.7
20260903205040 77 264 2.0 9.0 0.00 0.00 0.00 50 1020.6
20260903204540 77 169 2.0 10.0 0.00 0.00 0.00 49 1020.7
20260903204034 77 167 2.0 10.0 0.00 0.00 0.00 48 1021.0
20260903203534 77 210 1.0 7.0 0.00 0.00 0.00 50 1021.0
20260903203035 77 247 1.0 8.0 0.00 0.00 0.00 47 1021.0
20260903202534 77 214 2.0 9.0 0.00 0.00 0.00 49 1021.0
20260903202034 77 233 3.0 9.0 0.00 0.00 0.00 48 1021.1
20260903201535 78 257 3.0 10.0 0.00 0.00 0.00 45 1021.0
20260903201029 78 128 3.0 10.0 0.00 0.00 0.00 45 1021.1
20260903200530 78 244 3.0 10.0 0.00 0.00 0.00 47 1021.1
20260903200028 78 168 3.0 12.0 0.00 0.00 0.00 45 1021.2
20260903195759 78 261 3.0 12.0 0.00 0.00 0.00 46 1021.2
20260903195028 78 261 3.0 12.0 0.00 0.00 0.00 46 1021.2
20260903194528 78 216 3.0 12.0 0.00 0.00 0.00 49 1021.5
20260903194021 78 179 2.0 10.0 0.00 0.00 0.00 48 1021.3
20260903193523 77 142 2.0 10.0 0.00 0.00 0.00 49 1021.3
20260903193024 77 150 3.0 13.0 0.00 0.00 0.00 49 1021.5
20260903192523 77 268 3.0 13.0 0.00 0.00 0.00 49 1021.6
20260903192023 76 188 2.0 12.0 0.00 0.00 0.00 53 1021.6
20260903191522 75 255 2.0 8.0 0.00 0.00 0.00 53 1021.7
20260903191015 75 234 2.0 8.0 0.00 0.00 0.00 53 1021.8
20260903190517 75 247 2.0 8.0 0.00 0.00 0.00 52 1021.8
20260903190017 75 170 2.0 8.0 0.00 0.00 0.00 53 1021.9
20260903185747 75 55 2.0 9.0 0.00 0.00 0.00 54 1021.9
20260903185016 75 157 2.0 9.0 0.00 0.00 0.00 56 1022.0
20260903184518 74 169 3.0 11.0 0.00 0.00 0.00 55 1022.0
20260903184014 74 203 3.0 11.0 0.00 0.00 0.00 57 1022.2
20260903183511 74 257 3.0 11.0 0.00 0.00 0.00 55 1022.2
20260903183011 75 265 3.0 11.0 0.00 0.00 0.00 55 1022.3
20260903182510 76 244 3.0 9.0 0.00 0.00 0.00 54 1022.3
20260903182010 75 157 2.0 9.0 0.00 0.00 0.00 54 1022.3
20260903181510 76 162 3.0 11.0 0.00 0.00 0.00 53 1022.4
20260903181005 75 209 3.0 11.0 0.00 0.00 0.00 52 1022.5
20260903180735 75 262 2.0 12.0 0.00 0.00 0.00 54 1022.5
20260903180237 75 147 3.0 12.0 0.00 0.00 0.00 54 1022.6
20260903175504 75 156 3.0 10.0 0.00 0.00 0.00 53 1022.6
20260903175235 75 226 3.0 9.0 0.00 0.00 0.00 52 1022.8
20260903174504 75 154 3.0 8.0 0.00 0.00 0.00 54 1022.5
20260903173958 75 248 2.0 8.0 0.00 0.00 0.00 52 1022.6
20260903173456 75 168 3.0 9.0 0.00 0.00 0.00 53 1022.6
20260903172955 75 231 3.0 9.0 0.00 0.00 0.00 55 1022.5
20260903172724 76 86 2.0 10.0 0.00 0.00 0.00 55 1022.6
20260903171952 75 164 1.0 10.0 0.00 0.00 0.00 56 1022.6
20260903171450 75 216 2.0 7.0 0.00 0.00 0.00 55 1022.6
20260903170948 75 227 3.0 9.0 0.00 0.00 0.00 53 1022.5
20260903170446 74 250 3.0 9.0 0.00 0.00 0.00 57 1022.5
20260903165946 74 160 3.0 9.0 0.00 0.00 0.00 59 1022.5
20260903165447 74 163 3.0 10.0 0.00 0.00 0.00 58 1022.6
20260903164948 74 149 2.0 10.0 0.00 0.00 0.00 59 1022.5
20260903164440 74 164 2.0 10.0 0.00 0.00 0.00 58 1022.4
20260903163939 74 214 3.0 10.0 0.00 0.00 0.00 59 1022.5
20260903163440 74 303 3.0 9.0 0.00 0.00 0.00 61 1022.5
20260903162940 73 222 2.0 9.0 0.00 0.00 0.00 60 1022.4
20260903162441 74 261 2.0 9.0 0.00 0.00 0.00 61 1022.4
20260903161940 73 250 3.0 8.0 0.00 0.00 0.00 61 1022.4
20260903161434 73 232 3.0 8.0 0.00 0.00 0.00 60 1022.5
20260903160935 73 141 2.0 8.0 0.00 0.00 0.00 60 1022.4
20260903160435 73 237 2.0 8.0 0.00 0.00 0.00 61 1022.4
20260903155934 73 230 2.0 8.0 0.00 0.00 0.00 60 1022.5
20260903155434 73 131 2.0 8.0 0.00 0.00 0.00 58 1022.5
20260903154934 73 246 2.0 8.0 0.00 0.00 0.00 58 1022.6
20260903154427 74 251 1.0 8.0 0.00 0.00 0.00 58 1022.6
20260903153929 74 255 1.0 7.0 0.00 0.00 0.00 55 1022.5
20260903153429 73 209 3.0 7.0 0.00 0.00 0.00 53 1022.5
20260903152929 73 138 2.0 7.0 0.00 0.00 0.00 52 1022.5
20260903152659 73 171 1.0 6.0 0.00 0.00 0.00 51 1022.5
20260903151929 73 207 1.0 5.0 0.00 0.00 0.00 49 1022.5
20260903151425 73 205 2.0 5.0 0.00 0.00 0.00 47 1022.5
20260903150925 73 150 2.0 5.0 0.00 0.00 0.00 48 1022.5
20260903150422 73 138 1.0 5.0 0.00 0.00 0.00 46 1022.5
20260903145654 73 233 1.0 5.0 0.00 0.00 0.00 48 1022.5
20260903144922 73 112 0.0 4.0 0.00 0.00 0.00 47 1022.4
20260903144655 72 155 0.0 3.0 0.00 0.00 0.00 49 1022.4
20260903143919 72 156 0.0 3.0 0.00 0.00 0.00 49 1022.4
20260903143421 71 143 0.0 2.0 0.00 0.00 0.00 54 1022.3
20260903142918 69 143 0.0 2.0 0.00 0.00 0.00 61 1022.4
20260903141916 66 100 0.0 0.0 0.00 0.00 0.00 70 1022.3
20260903141414 65 100 0.0 0.0 0.00 0.00 0.00 70 1022.3
20260903140914 64 100 0.0 0.0 0.00 0.00 0.00 73 1022.3
20260903140414 62 99 0.0 0.0 0.00 0.00 0.00 74 1022.3
20260903135913 61 100 0.0 0.0 0.00 0.00 0.00 76 1022.4
20260903135641 60 100 0.0 0.0 0.00 0.00 0.00 77 1022.3
20260903134912 59 100 0.0 0.0 0.00 0.00 0.00 79 1022.3
20260903134404 58 99 0.0 0.0 0.00 0.00 0.00 82 1022.2
20260903133902 57 100 0.0 0.0 0.00 0.00 0.00 86 1022.2
20260903133400 55 100 0.0 0.0 0.00 0.00 0.00 89 1022.0
20260903132859 54 100 0.0 0.0 0.00 0.00 0.00 89 1021.9
20260903132400 54 99 0.0 0.0 0.00 0.00 0.00 88 1021.8
20260903131852 53 100 0.0 0.0 0.00 0.00 0.00 88 1021.8
20260903131351 53 99 0.0 0.0 0.00 0.00 0.00 89 1021.8
20260903130851 53 100 0.0 0.0 0.00 0.00 0.00 89 1021.8
20260903130349 53 100 0.0 0.0 0.00 0.00 0.00 89 1021.7
20260903125851 53 99 0.0 0.0 0.00 0.00 0.00 89 1021.7
20260903125351 53 100 0.0 0.0 0.00 0.00 0.00 89 1021.7
20260903124843 53 99 0.0 0.0 0.00 0.00 0.00 89 1021.7
20260903124341 53 100 0.0 0.0 0.00 0.00 0.00 90 1021.6
20260903123841 53 99 0.0 0.0 0.00 0.00 0.00 89 1021.6
20260903123338 53 100 0.0 0.0 0.00 0.00 0.00 89 1021.6
20260903122839 53 99 0.0 0.0 0.00 0.00 0.00 89 1021.5
20260903121832 53 100 0.0 0.0 0.00 0.00 0.00 88 1021.5
20260903121331 54 100 0.0 0.0 0.00 0.00 0.00 88 1021.5
20260903121100 54 100 0.0 1.0 0.00 0.00 0.00 88 1021.3
20260903120328 54 100 0.0 1.0 0.00 0.00 0.00 88 1021.5
20260903115830 54 100 0.0 0.0 0.00 0.00 0.00 87 1021.5
20260903115322 54 100 0.0 0.0 0.00 0.00 0.00 88 1021.5
20260903115053 54 100 0.0 0.0 0.00 0.00 0.00 88 1021.5
20260903114318 54 100 0.0 0.0 0.00 0.00 0.00 88 1021.3
20260903113816 55 99 0.0 0.0 0.00 0.00 0.00 88 1021.3
20260903113317 55 100 0.0 1.0 0.00 0.00 0.00 88 1021.3
20260903112307 55 100 0.0 1.0 0.00 0.00 0.00 88 1021.3
20260903111807 55 100 0.0 1.0 0.00 0.00 0.00 88 1021.3
20260903111536 55 99 0.0 0.0 0.00 0.00 0.00 87 1021.3
20260903110805 55 100 0.0 0.0 0.00 0.00 0.00 87 1021.2
20260903110301 55 99 0.0 0.0 0.00 0.00 0.00 87 1021.2
20260903105802 55 100 0.0 0.0 0.00 0.00 0.00 87 1021.2
20260903105301 55 100 0.0 0.0 0.00 0.00 0.00 87 1021.3
20260903104801 56 100 0.0 0.0 0.00 0.00 0.00 86 1021.3
20260903103758 56 100 0.0 0.0 0.00 0.00 0.00 85 1021.3
20260903103257 56 100 0.0 0.0 0.00 0.00 0.00 84 1021.3
20260903102253 57 100 0.0 2.0 0.00 0.00 0.00 83 1021.5
20260903101753 57 100 0.0 2.0 0.00 0.00 0.00 83 1021.5
20260903101523 57 100 0.0 2.0 0.00 0.00 0.00 83 1021.6
20260903100753 57 100 0.0 2.0 0.00 0.00 0.00 83 1021.7
20260903100250 57 100 0.0 2.0 0.00 0.00 0.00 84 1021.7
20260903095751 57 99 0.0 2.0 0.00 0.00 0.00 84 1021.7
20260903095251 57 98 0.0 1.0 0.00 0.00 0.00 85 1021.7
20260903094748 56 98 0.0 1.0 0.00 0.00 0.00 85 1021.7
20260903094247 56 98 0.0 2.0 0.00 0.00 0.00 85 1021.7
20260903093747 56 98 0.0 2.0 0.00 0.00 0.00 86 1021.6
20260903093243 56 98 0.0 3.0 0.00 0.00 0.00 86 1021.6
20260903093012 56 98 0.0 3.0 0.00 0.00 0.00 87 1021.7
20260903092240 55 114 0.0 2.0 0.00 0.00 0.00 87 1021.7
20260903092011 55 113 0.0 2.0 0.00 0.00 0.00 86 1021.7
20260903091241 55 113 0.0 2.0 0.00 0.00 0.00 86 1021.7
20260903090740 56 113 0.0 1.0 0.00 0.00 0.00 85 1021.7
20260903090507 56 114 0.0 1.0 0.00 0.00 0.00 85 1021.7
20260903085736 56 114 0.0 1.0 0.00 0.00 0.00 85 1021.7
20260903085236 56 105 0.0 1.0 0.00 0.00 0.00 84 1021.7
20260903084737 57 105 0.0 1.0 0.00 0.00 0.00 84 1021.7
20260903084235 57 105 0.0 1.0 0.00 0.00 0.00 84 1021.7
20260903083734 57 105 0.0 1.0 0.00 0.00 0.00 84 1021.7
20260903082730 57 105 0.0 3.0 0.00 0.00 0.00 84 1021.8
20260903082228 57 105 0.0 3.0 0.00 0.00 0.00 84 1021.8
20260903081728 57 105 0.0 3.0 0.00 0.00 0.00 84 1021.8
20260903081228 57 105 0.0 1.0 0.00 0.00 0.00 84 1021.8
20260903080729 57 105 0.0 1.0 0.00 0.00 0.00 84 1021.9
20260903080222 57 105 0.0 3.0 0.00 0.00 0.00 85 1021.9
20260903075721 57 105 0.0 3.0 0.00 0.00 0.00 85 1021.9
20260903075218 57 105 1.0 3.0 0.00 0.00 0.00 85 1022.0
20260903074717 57 105 0.0 3.0 0.00 0.00 0.00 85 1022.0
20260903074218 57 86 0.0 2.0 0.00 0.00 0.00 85 1022.0
20260903073715 57 85 0.0 3.0 0.00 0.00 0.00 85 1022.0
20260903073445 57 103 0.0 3.0 0.00 0.00 0.00 84 1022.0
20260903072713 57 110 0.0 3.0 0.00 0.00 0.00 83 1022.0
20260903072213 58 110 1.0 3.0 0.00 0.00 0.00 83 1022.0
20260903071210 57 86 0.0 3.0 0.00 0.00 0.00 84 1022.0
20260903070709 57 83 0.0 4.0 0.00 0.00 0.00 86 1022.0
20260903070207 56 83 0.0 4.0 0.00 0.00 0.00 87 1022.0
20260903065205 56 106 0.0 1.0 0.00 0.00 0.00 88 1021.9
20260903064705 56 107 0.0 1.0 0.00 0.00 0.00 88 1021.9
20260903064204 56 107 0.0 1.0 0.00 0.00 0.00 88 1022.0
20260903063659 56 107 0.0 1.0 0.00 0.00 0.00 88 1021.9
20260903063155 56 108 0.0 1.0 0.00 0.00 0.00 88 1022.0
20260903062925 56 107 0.0 0.0 0.00 0.00 0.00 88 1022.0
20260903062153 57 107 0.0 0.0 0.00 0.00 0.00 88 1021.9
20260903061652 57 107 0.0 0.0 0.00 0.00 0.00 88 1022.0
20260903061146 57 107 0.0 1.0 0.00 0.00 0.00 88 1022.0
20260903060643 57 107 0.0 1.0 0.00 0.00 0.00 88 1022.2
20260903060142 57 107 0.0 1.0 0.00 0.00 0.00 88 1022.2
20260903055640 57 107 0.0 1.0 0.00 0.00 0.00 88 1022.0
20260903055140 57 235 0.0 0.0 0.00 0.00 0.00 87 1022.0
20260903054634 57 235 0.0 0.0 0.00 0.00 0.00 87 1022.0
20260903054133 58 235 0.0 0.0 0.00 0.00 0.00 87 1021.9
20260903053631 58 235 0.0 0.0 0.00 0.00 0.00 87 1022.0
20260903053129 58 236 0.0 0.0 0.00 0.00 0.00 87 1022.0
20260903052628 58 235 0.0 0.0 0.00 0.00 0.00 86 1022.2
20260903052125 58 235 0.0 0.0 0.00 0.00 0.00 86 1022.2
20260903051624 58 235 0.0 0.0 0.00 0.00 0.00 86 1022.2
20260903051122 58 236 0.0 0.0 0.00 0.00 0.00 86 1022.2
20260903050623 58 236 0.0 1.0 0.00 0.00 0.00 85 1022.3
20260903050123 59 235 0.0 1.0 0.00 0.00 0.00 85 1022.3
20260903045624 59 235 0.0 1.0 0.00 0.00 0.00 85 1022.2
20260903045115 59 235 0.0 1.0 0.00 0.00 0.00 85 1022.2
20260903044614 59 235 0.0 0.0 0.00 0.00 0.00 85 1022.3
20260903044112 59 235 0.0 0.0 0.00 0.00 0.00 84 1022.3
20260903043611 60 235 0.0 0.0 0.00 0.00 0.00 83 1022.4
20260903043112 60 236 0.0 0.0 0.00 0.00 0.00 83 1022.3
20260903042608 60 236 0.0 0.0 0.00 0.00 0.00 83 1022.3
20260903041609 60 235 0.0 0.0 0.00 0.00 0.00 81 1022.3
20260903041107 61 235 0.0 0.0 0.00 0.00 0.00 81 1022.3
20260903040605 61 235 0.0 0.0 0.00 0.00 0.00 81 1022.2
20260903040104 61 235 0.0 0.0 0.00 0.00 0.00 80 1022.0
20260903035559 61 236 0.0 0.0 0.00 0.00 0.00 81 1022.2
20260903035101 62 235 0.0 0.0 0.00 0.00 0.00 80 1022.0
20260903034600 62 235 0.0 0.0 0.00 0.00 0.00 80 1022.0
20260903034333 62 235 0.0 0.0 0.00 0.00 0.00 79 1022.0
20260903033601 62 235 0.0 0.0 0.00 0.00 0.00 79 1022.0
20260903033101 62 235 0.0 0.0 0.00 0.00 0.00 78 1021.9
20260903032556 63 235 0.0 0.0 0.00 0.00 0.00 77 1021.9
20260903032056 63 235 0.0 0.0 0.00 0.00 0.00 76 1021.8
20260903031055 64 235 0.0 0.0 0.00 0.00 0.00 73 1021.7
20260903030826 64 235 0.0 0.0 0.00 0.00 0.00 73 1021.6
20260903030057 65 235 0.0 0.0 0.00 0.00 0.00 71 1021.5
20260903025551 65 235 0.0 0.0 0.00 0.00 0.00 69 1021.3
20260903025052 66 235 0.0 0.0 0.00 0.00 0.00 68 1021.3
20260903024552 66 235 0.0 0.0 0.00 0.00 0.00 67 1021.2
20260903024053 67 235 0.0 0.0 0.00 0.00 0.00 66 1021.2
20260903023552 67 235 0.0 0.0 0.00 0.00 0.00 64 1021.1
20260903023053 68 235 0.0 0.0 0.00 0.00 0.00 64 1021.1
20260903022819 68 235 0.0 0.0 0.00 0.00 0.00 63 1021.0
20260903022047 69 235 0.0 0.0 0.00 0.00 0.00 62 1021.0
20260903021548 70 235 0.0 0.0 0.00 0.00 0.00 60 1020.9
20260903021049 70 235 0.0 0.0 0.00 0.00 0.00 58 1020.7
20260903020547 71 235 0.0 0.0 0.00 0.00 0.00 57 1020.9
20260903020049 71 235 0.0 0.0 0.00 0.00 0.00 56 1020.7
20260903015544 72 235 0.0 1.0 0.00 0.00 0.00 57 1020.9
20260903015045 72 235 0.0 1.0 0.00 0.00 0.00 54 1020.7
20260903014543 73 235 0.0 3.0 0.00 0.00 0.00 53 1020.9
20260903014043 73 235 0.0 3.0 0.00 0.00 0.00 52 1020.9
20260903013817 74 235 1.0 4.0 0.00 0.00 0.00 51 1020.9
20260903013046 74 250 1.0 5.0 0.00 0.00 0.00 50 1020.9
20260903012540 75 254 1.0 5.0 0.00 0.00 0.00 50 1020.9
20260903012039 75 247 1.0 5.0 0.00 0.00 0.00 49 1020.9
20260903011541 76 158 1.0 5.0 0.00 0.00 0.00 48 1021.0
20260903011041 76 259 1.0 5.0 0.00 0.00 0.00 46 1021.0
20260903010815 77 183 1.0 5.0 0.00 0.00 0.00 45 1021.0
20260903010042 78 171 2.0 5.0 0.00 0.00 0.00 44 1021.0
20260903005537 78 276 1.0 6.0 0.00 0.00 0.00 44 1021.0
20260903005037 78 216 1.0 6.0 0.00 0.00 0.00 44 1021.0
20260903004535 78 221 2.0 7.0 0.00 0.00 0.00 44 1021.1
20260903004036 78 209 1.0 7.0 0.00 0.00 0.00 45 1021.1
20260903003536 78 246 1.0 8.0 0.00 0.00 0.00 47 1021.1
20260903003037 78 254 2.0 8.0 0.00 0.00 0.00 45 1021.1
20260903002532 78 224 1.0 7.0 0.00 0.00 0.00 44 1021.1
20260903002031 79 271 1.0 7.0 0.00 0.00 0.00 45 1021.1
20260903001533 79 266 1.0 9.0 0.00 0.00 0.00 43 1021.2
20260903001031 79 250 2.0 9.0 0.00 0.00 0.00 44 1021.2
20260903000533 79 149 3.0 9.0 0.00 0.00 0.00 43 1021.2
20260903000032 79 242 2.0 9.0 0.00 0.00 0.00 44 1021.1
20260902235528 80 259 2.0 8.0 0.00 0.00 0.00 43 1021.1
20260902235029 79 141 3.0 10.0 0.00 0.00 0.00 44 1021.2
20260902234528 80 264 3.0 10.0 0.00 0.00 0.00 42 1021.3
20260902234028 80 252 2.0 9.0 0.00 0.00 0.00 44 1021.3